TimeEDT,TemperatureF,Dew PointF,Humidity,Sea Level PressureIn,VisibilityMPH,Wind Direction,Wind SpeedMPH,Gust SpeedMPH,PrecipitationIn,Events,Conditions,WindDirDegrees,DateUTC
12:51 AM,46.9,45.0,93,30.10,10.0,West,5.8,-,0.00,Rain,Light Rain,260,2012-10-08 04:51:00
1:51 AM,45.9,43.9,93,30.11,10.0,WNW,4.6,-,0.00,,Partly Cloudy,300,2012-10-08 05:51:00
2:51 AM,45.0,43.0,93,30.09,10.0,Calm,Calm,-,N/A,,Partly Cloudy,0,2012-10-08 06:51:00
3:51 AM,41.9,41.0,97,30.10,9.0,Calm,Calm,-,N/A,,Clear,0,2012-10-08 07:51:00
4:51 AM,41.0,39.9,96,30.13,10.0,NNW,3.5,-,0.01,,Clear,330,2012-10-08 08:51:00
5:51 AM,39.9,37.9,93,30.15,10.0,WNW,3.5,-,N/A,,Clear,300,2012-10-08 09:51:00
6:51 AM,38.8,37.9,97,30.16,9.0,Calm,Calm,-,N/A,,Clear,0,2012-10-08 10:51:00
7:51 AM,39.9,38.8,96,30.20,3.0,NW,3.5,-,N/A,,Clear,310,2012-10-08 11:51:00
8:51 AM,45.0,41.9,89,30.23,10.0,NNW,3.5,-,N/A,,Clear,340,2012-10-08 12:51:00
9:51 AM,46.9,41.9,83,30.24,10.0,Calm,Calm,-,N/A,,Clear,0,2012-10-08 13:51:00
10:51 AM,50.9,43.0,74,30.25,10.0,Calm,Calm,-,N/A,,Scattered Clouds,0,2012-10-08 14:51:00
11:04 AM,51.8,42.8,71,30.24,10.0,Calm,Calm,-,N/A,,Mostly Cloudy,0,2012-10-08 15:04:00
11:51 AM,52.0,41.9,69,30.27,10.0,NNW,6.9,-,N/A,,Mostly Cloudy,340,2012-10-08 15:51:00
12:51 PM,52.9,39.9,61,30.26,10.0,NNW,8.1,-,N/A,,Overcast,330,2012-10-08 16:51:00
1:51 PM,54.0,39.9,59,30.25,10.0,NNW,6.9,-,N/A,,Overcast,340,2012-10-08 17:51:00
2:51 PM,54.0,39.9,59,30.27,10.0,North,5.8,-,N/A,,Mostly Cloudy,10,2012-10-08 18:51:00
3:09 PM,55.4,39.2,54,30.27,1.2,NNW,4.6,-,N/A,,Haze,330,2012-10-08 19:09:00
3:21 PM,55.4,39.2,54,30.26,2.0,NW,5.8,-,N/A,,Haze,310,2012-10-08 19:21:00
3:51 PM,54.9,37.9,53,30.27,10.0,ENE,3.5,-,N/A,,Mostly Cloudy,60,2012-10-08 19:51:00
4:51 PM,55.9,41.0,57,30.27,10.0,Calm,Calm,-,N/A,,Clear,0,2012-10-08 20:51:00
5:51 PM,52.0,43.0,71,30.29,10.0,Calm,Calm,-,N/A,,Clear,0,2012-10-08 21:51:00
6:51 PM,48.9,43.0,80,30.30,10.0,Calm,Calm,-,N/A,,Clear,0,2012-10-08 22:51:00
7:51 PM,47.8,43.9,86,30.32,10.0,Calm,Calm,-,N/A,,Clear,0,2012-10-08 23:51:00
8:51 PM,46.9,43.0,86,30.32,10.0,Calm,Calm,-,N/A,,Clear,0,2012-10-09 00:51:00
9:51 PM,45.9,43.0,90,30.33,10.0,Calm,Calm,-,N/A,,Clear,0,2012-10-09 01:51:00
10:51 PM,45.0,41.9,89,30.34,10.0,NW,3.5,-,N/A,,Clear,310,2012-10-09 02:51:00
11:51 PM,45.0,41.9,89,30.34,10.0,NW,3.5,-,N/A,,Partly Cloudy,310,2012-10-09 03:51:00